Погода в Анцухихи

Мадагаскар     14°55′52″S   47°56′42″E
темп.,
°C
ветер,
м/с
пор.,
м/с
влажн.,
%
обл.,
%
осадки,
мм/ч
давл.,
гПа
погр.,
м
10 августа, ср
ср1000:00+21юв512596 0.0 1018790
03:00+21юв611554 0.0 1018694
06:00+21юв512594 0.0 1018731
09:00+26вюв710410 0.0 10191405
12:00+32вюв68240 0.0 10162374
15:00+30вюв810360 0.0 10151943
18:00+24юв713560 0.0 10171217
21:00+22юв714550 0.0 10201330
11 августа, чт
чт1100:00+21юв714550 0.0 10201124
03:00+20юв613540 0.0 1018892
06:00+19юв412570 0.0 1018607
09:00+25вюв711400 0.0 10191336
12:00+31вюв68250 0.0 10172425
15:00+31вюв79260 0.0 10142560
18:00+25юв813420 0.0 10171206
21:00+22юв612534 0.0 1019827
12 августа, пт
пт1200:00+21юв512560 0.0 1018617
03:00+21юв511595 0.0 1017792
06:00+21юв511580 0.0 1019883
09:00+27вюв610361 0.0 10191429
12:00+32юв67251 0.0 10162559
15:00+32юв772512 0.0 10132792
18:00+26юв7114131 0.0 10151021
21:00+23вюв595311 0.0 1018474
13 августа, сб
сб1300:00+20юв496341 0.0 1017348
03:00+19юв4106728 0.0 1016387
06:00+20юв5126580 0.0 1017489
09:00+27вюв6942100 0.0 10181245
12:00+32вюв552999 0.0 10152046
15:00+33юв4425100 0.0 10122904
18:00+26ссз255298 0.0 1015377
21:00+22вюв246890 0.1 1017141
14 августа, вс
вс1400:00+21юв3768100 0.0 1016278
03:00+19юв277592 0.0 1015219
06:00+19юв39743 0.0 1016268
09:00+27вюв44417 0.0 10161007
12:00+34юв23261 0.0 10132189
15:00+35юз122426 0.0 10102882
18:00+26ссз355376 0.0 1014448
21:00+21всв11783 0.0 101615